Location: Lane
(33.5226°N, 79.8788°W)
Time: 20:22:04
(UTC+00:00)

Courier 1B Rocket - Pass Details

Date: 05 October 2022
Orbit: 920 x 1202 km, 28.3° (Epoch: 01 December)

Event Time Altitude Azimuth Distance (km) Brightness Sun altitude
Rises 05:18:06 0° 263° (W) 3,564 - -61.1°
Reaches altitude 10° 05:21:49 10° 242° (WSW) 2,604 - -61.0°
Maximum altitude 05:25:21 16° 207° (SSW) 2,220 - -60.9°
Drops below altitude 10° 05:28:53 10° 172° (S) 2,609 - -60.8°
Sets 05:32:38 0° 151° (SSE) 3,575 - -60.6°
